Volver al catálogo

FENGYUN 1C DEB

ActivoSSO
NORAD 31766·DEBRIS·🇨🇳 China

Lanzado May 10, 1999 desde Taiyuan Satellite Launch Center

Loading…

Próximos Pases (próximas 24 horas)

TLE

ActualizadoSource: Space-Track

Época: Sep 14, 2026, 05:11 UTC

1 31766U 99025CFR 26257.21609234  .00000195  00000-0  14356-3 0  9994
2 31766  98.8296 252.6780 0073290 238.2762 121.1248 14.05406778679551

Sigue FENGYUN 1C DEB en tiempo real con AllMySat

Download on the App Store